DW8199 Weather Reports


Display with metric or nautical units.
time (UTC)temp
F
wind
direction
speed
MPH
gust
MPH
rain 1hr
in
rain 24hr
in
rain mn
in
humidity
%
barometer
mb
20260902215015 93 249 1.0 2.0 0.00 0.00 0.00 60 1016.1
20260902214035 93 230 1.0 6.0 0.00 0.00 0.00 57 1016.2
20260902213015 94 153 2.0 7.0 0.00 0.00 0.00 56 1016.4
20260902212015 94 196 2.0 5.0 0.00 0.00 0.00 54 1016.3
20260902211015 94 193 1.0 4.0 0.00 0.00 0.00 54 1016.3
20260902210015 94 193 1.0 6.0 0.00 0.00 0.00 56 1016.4
20260902205016 94 179 1.0 5.0 0.00 0.00 0.00 55 1016.5
20260902204102 95 254 1.0 6.0 0.00 0.00 0.00 54 1016.6
20260902203015 95 197 1.0 6.0 0.00 0.00 0.00 52 1016.7
20260902202016 95 219 1.0 6.0 0.00 0.00 0.00 50 1016.8
20260902201015 95 227 2.0 7.0 0.00 0.00 0.00 53 1016.9
20260902200015 95 208 1.0 4.0 0.00 0.00 0.00 56 1017.0
20260902195619 95 233 1.0 1.0 0.00 0.00 0.00 57 1017.0
20260902195016 95 256 2.0 4.0 0.00 0.00 0.00 54 1017.1
20260902194016 94 159 1.0 6.0 0.00 0.00 0.00 54 1017.1
20260902193036 94 115 2.0 7.0 0.00 0.00 0.00 52 1017.3
20260902192036 94 187 2.0 6.0 0.00 0.00 0.00 56 1017.4
20260902191016 94 279 2.0 5.0 0.00 0.00 0.00 53 1017.5
20260902190016 94 225 1.0 5.0 0.00 0.00 0.00 56 1017.5
20260902185016 94 276 2.0 6.0 0.00 0.00 0.00 56 1017.6
20260902184036 93 213 1.0 7.0 0.00 0.00 0.00 57 1017.6
20260902183036 94 204 2.0 7.0 0.00 0.00 0.00 58 1017.8
20260902182016 94 245 2.0 7.0 0.00 0.00 0.00 58 1018.0
20260902181036 94 200 2.0 6.0 0.00 0.00 0.00 59 1018.1
20260902180056 94 203 1.0 5.0 0.00 0.00 0.00 58 1018.1
20260902175017 94 209 1.0 5.0 0.00 0.00 0.00 60 1018.2
20260902174016 93 194 0.0 5.0 0.00 0.00 0.00 61 1018.4
20260902173017 93 267 2.0 6.0 0.00 0.00 0.00 59 1018.4
20260902172037 93 183 1.0 6.0 0.00 0.00 0.00 61 1018.4
20260902171016 92 163 0.0 4.0 0.00 0.00 0.00 64 1018.4
20260902170016 92 224 1.0 7.0 0.00 0.00 0.00 63 1018.5
20260902165016 91 222 1.0 5.0 0.00 0.00 0.00 64 1018.6
20260902164016 91 190 1.0 4.0 0.00 0.00 0.00 66 1018.6
20260902163016 91 236 1.0 4.0 0.00 0.00 0.00 67 1018.7
20260902162056 90 223 1.0 5.0 0.00 0.00 0.00 69 1018.8
20260902161016 89 199 1.0 4.0 0.00 0.00 0.00 70 1018.9
20260902160017 89 207 1.0 4.0 0.00 0.00 0.00 70 1019.1
20260902155016 88 210 2.0 4.0 0.00 0.00 0.00 72 1019.1
20260902154016 87 209 1.0 5.0 0.00 0.00 0.00 73 1019.1
20260902153017 87 210 1.0 4.0 0.00 0.00 0.00 73 1019.1
20260902152016 86 208 1.0 4.0 0.00 0.00 0.00 74 1019.1
20260902151016 85 224 1.0 4.0 0.00 0.00 0.00 77 1019.0
20260902150016 84 182 1.0 4.0 0.00 0.00 0.00 79 1019.0
20260902145016 83 237 1.0 5.0 0.00 0.00 0.00 81 1019.0
20260902143015 82 149 0.0 3.0 0.00 0.00 0.00 83 1019.0
20260902142015 81 221 0.0 4.0 0.00 0.00 0.00 84 1018.9
20260902141015 80 263 1.0 4.0 0.00 0.00 0.00 86 1018.9
20260902140015 79 0.0 0.0 0.00 0.00 0.00 87 1018.8
20260902135015 78 0.0 0.0 0.00 0.00 0.00 89 1018.7
20260902134015 78 0.0 0.0 0.00 0.00 0.00 89 1018.7
20260902132556 76 0.0 0.0 0.00 0.00 0.00 90 1018.8
20260902131515 75 0.0 0.0 0.00 0.00 0.00 91 1018.7
20260902130515 75 0.0 0.0 0.00 0.00 0.00 91 1018.6
20260902125515 74 0.0 0.0 0.00 0.00 0.00 91 1018.6
20260902124515 74 0.0 0.0 0.00 0.00 0.00 91 1018.7
20260902123515 74 0.0 0.0 0.00 0.00 0.00 92 1018.7
20260902122515 74 0.0 0.0 0.00 0.00 0.00 92 1018.6
20260902121535 73 0.0 0.0 0.00 0.00 0.00 92 1018.3
20260902120515 73 0.0 0.0 0.00 0.00 0.00 92 1018.3
20260902115540 73 0.0 0.0 0.00 0.00 0.00 92 1018.3
20260902114515 73 0.0 0.0 0.00 0.00 0.00 92 1018.2
20260902113015 73 0.0 0.0 0.00 0.00 0.00 92 1018.0
20260902112015 73 0.0 0.0 0.00 0.00 0.00 92 1018.0
20260902111015 72 0.0 0.0 0.00 0.00 0.00 92 1017.9
20260902110015 72 0.0 0.0 0.00 0.00 0.00 92 1017.8
20260902105015 72 0.0 0.0 0.00 0.00 0.00 92 1017.8
20260902104015 72 0.0 0.0 0.00 0.00 0.00 92 1017.8
20260902103015 72 0.0 0.0 0.00 0.00 0.00 92 1017.8
20260902102015 72 0.0 0.0 0.00 0.00 0.00 92 1017.7
20260902101015 72 0.0 0.0 0.00 0.00 0.00 92 1017.8
20260902100015 72 0.0 0.0 0.00 0.00 0.00 92 1017.9
20260902095015 72 0.0 0.0 0.00 0.00 0.00 92 1017.9
20260902094035 72 0.0 0.0 0.00 0.00 0.00 92 1018.0
20260902093015 72 0.0 0.0 0.00 0.00 0.00 92 1017.8
20260902092015 72 0.0 0.0 0.00 0.00 0.00 92 1017.9
20260902091015 71 0.0 0.0 0.00 0.00 0.00 92 1018.1
20260902090015 71 0.0 0.0 0.00 0.00 0.00 92 1018.1
20260902085015 72 0.0 0.0 0.00 0.00 0.00 92 1018.1
20260902084015 71 0.0 0.0 0.00 0.00 0.00 92 1018.1
20260902083015 71 0.0 0.0 0.00 0.00 0.00 92 1017.9
20260902082015 71 0.0 0.0 0.00 0.00 0.00 92 1017.8
20260902081035 71 0.0 0.0 0.00 0.00 0.00 92 1017.9
20260902080014 71 0.0 0.0 0.00 0.00 0.00 92 1017.8
20260902075014 71 0.0 0.0 0.00 0.00 0.00 92 1017.9
20260902074015 71 0.0 0.0 0.00 0.00 0.00 92 1017.8
20260902073017 71 0.0 0.0 0.00 0.00 0.00 92 1018.0
20260902072016 72 0.0 0.0 0.00 0.00 0.00 92 1017.9
20260902071017 72 0.0 0.0 0.00 0.00 0.00 92 1017.9
20260902070037 72 0.0 0.0 0.00 0.00 0.00 92 1018.0
20260902065017 72 0.0 0.0 0.00 0.00 0.00 92 1018.0
20260902064037 72 0.0 0.0 0.00 0.00 0.00 92 1018.1
20260902063037 72 0.0 0.0 0.00 0.00 0.00 91 1018.1
20260902062037 72 0.0 0.0 0.00 0.00 0.00 91 1018.1
20260902061017 73 0.0 0.0 0.00 0.00 0.00 92 1018.2
20260902060017 72 0.0 0.0 0.00 0.00 0.00 91 1018.0
20260902055017 73 0.0 0.0 0.00 0.00 0.00 91 1018.0
20260902054119 73 0.0 0.0 0.00 0.00 0.00 92 1017.9
20260902053016 73 0.0 0.0 0.00 0.00 0.00 91 1017.7
20260902052120 73 0.0 0.0 0.00 0.00 0.00 91 1017.7
20260902051517 73 0.0 0.0 0.00 0.00 0.00 91 1017.6
20260902050517 73 0.0 0.0 0.00 0.00 0.00 91 1017.6
20260902045517 73 0.0 0.0 0.00 0.00 0.00 91 1017.5
20260902044517 73 0.0 0.0 0.00 0.00 0.00 91 1017.5
20260902043517 73 0.0 0.0 0.00 0.00 0.00 91 1017.6
20260902042516 73 0.0 0.0 0.00 0.00 0.00 91 1017.6
20260902041537 73 0.0 0.0 0.00 0.00 0.00 91 1017.6
20260902040517 73 0.0 0.0 0.00 0.00 0.00 91 1017.6
20260902035517 73 0.0 0.0 0.00 0.00 0.00 91 1017.7
20260902034517 73 0.0 0.0 0.00 0.00 0.00 91 1017.7
20260902033517 73 0.0 0.0 0.00 0.00 0.00 91 1017.6
20260902032517 74 0.0 0.0 0.00 0.00 0.00 90 1017.6
20260902031518 74 0.0 0.0 0.00 0.00 0.00 90 1017.5
20260902030516 74 0.0 0.0 0.00 0.00 0.00 90 1017.6
20260902025537 74 0.0 0.0 0.00 0.00 0.00 90 1017.6
20260902024517 74 0.0 0.0 0.00 0.00 0.00 90 1017.5
20260902012016 76 0.0 0.0 0.00 0.00 0.00 88 1017.0
20260902011015 76 0.0 0.0 0.00 0.00 0.00 88 1016.9
20260902010036 77 0.0 0.0 0.00 0.00 0.00 88 1016.5
20260902005015 77 0.0 0.0 0.00 0.00 0.00 88 1016.4
20260902004016 77 0.0 0.0 0.00 0.00 0.00 87 1016.2
20260902003016 77 0.0 0.0 0.00 0.00 0.00 87 1016.3
20260902002619 77 0.0 0.0 0.00 0.00 0.00 87 1016.3
20260902001515 78 0.0 0.0 0.00 0.00 0.00 86 1016.3
20260902000515 78 0.0 0.0 0.00 0.00 0.00 86 1016.5
20260901235515 78 0.0 0.0 0.00 0.00 0.00 85 1016.6
20260901234535 78 0.0 0.0 0.00 0.00 0.00 85 1016.7
20260901233516 79 0.0 0.0 0.00 0.00 0.00 85 1016.9
20260901232516 79 0.0 0.0 0.00 0.00 0.00 84 1017.0
20260901231515 80 0.0 0.0 0.00 0.00 0.00 83 1017.2
20260901230515 80 0.0 1.0 0.00 0.00 0.00 83 1017.2
20260901225515 80 113 0.0 1.0 0.00 0.00 0.00 82 1017.3
20260901224515 80 124 0.0 2.0 0.00 0.00 0.00 82 1017.4
20260901223515 80 88 0.0 1.0 0.00 0.00 0.00 82 1017.4
20260901222516 80 89 0.0 1.0 0.00 0.00 0.00 82 1017.5
20260901221515 81 106 0.0 1.0 0.00 0.00 0.00 81 1017.6
20260901220515 82 0.0 1.0 0.00 0.00 0.00 78 1017.7
20260901215515 84 295 0.0 2.0 0.00 0.00 0.00 75 1017.8